Regional Weather Roundup
Issued by NWS Jackson, KY

Home | Current Version | Previous Version | Text Only | Print | Product List | Glossary Off
Versions: 1 2 3 4 5 6 7 8 9 10 11 12 13 14 15 16 17 18 19 20 21 22 23 24 25 26 27 28 29 30 31 32 33 34 35 36 37 38 39 40 41 42 43 44 45 46 47 48 49 50

000
ASUS43 KJKL 012311
RWRJKL

EAST KENTUCKY HOURLY WEATHER ROUNDUP
NATIONAL WEATHER SERVICE JACKSON KY
700 PM EDT WED OCT 01 2014

NOTE: "FAIR" INDICATES FEW OR NO CLOUDS BELOW 12,000 FEET WITH
NO SIGNIFICANT WEATHER AND/OR OBSTRUCTIONS TO VISIBILITY.

* THESE REPORTS ARE NOT UNDER NWS QUALITY CONTROL AND MAY NOT
  REPORT WEATHER SUCH AS PRECIPITATION AND FOG.

KYZ079-080-083-085-087-088-110-112-115-119-120-020000
...EASTERN KENTUCKY...

CITY           SKY/WX    TMP DP  RH WIND       PRES   REMARKS
JACKSON        MOCLDY    73  59  61 CALM      30.02R
LONDON         CLEAR     79  54  41 W3        30.00S
SOMERSET*      CLEAR     77  54  44 CALM      29.99S
MONTICELLO*    CLEAR     77  60  55 CALM      30.00R
MIDDLESBORO*   CLEAR     72  61  68 CALM      30.01S
HARLAN APT*    CLEAR     70  57  64 CALM      30.02S
HAZARD APT*    MOCLDY    75  59  57 CALM      30.01R
BLACK MTN*       N/A     61  52  72 CALM        N/A
PIKEVILLE APT* PTCLDY    72  59  64 CALM      30.02S
BIG SANDY*     CLEAR     71  62  72 CALM      30.02R
MOREHEAD APT*  CLEAR     75  57  53 CALM      30.01S
$$

KYZ035-036-041-042-044-050-067-078-099-020000
...CENTRAL KENTUCKY...

CITY           SKY/WX    TMP DP  RH WIND       PRES   REMARKS
MT STERLING*   CLEAR     77  59  53 CALM      30.01R
FLEMING/MASON* CLEAR     73  57  56 CALM      30.00S
DANVILLE*      CLEAR     77  57  50 E3        29.99R
RICHMOND*      PTCLDY    75  57  53 E3        29.98S
LEXINGTON      CLEAR     77  58  51 NE5       29.98S
FRANKFORT      CLEAR     77  57  50 NE3       29.96S
$$

KYZ091>093-OHZ055-061-077-WVZ005-015-034-035-042-020000
...SOUTHERN OHIO/WEST VIRGINIA...

CITY           SKY/WX    TMP DP  RH WIND       PRES   REMARKS
COVINGTON      PTCLDY    74  53  48 E8        29.98S
COLUMBUS       CLEAR     65  52  62 NE10      30.00S
DAYTON         CLEAR     65  51  60 SE5       30.02R
WILMINGTON     CLEAR     66  47  50 NE3       30.01R
HUNTINGTON     CLEAR     67  61  81 E5        29.99S
CHARLESTON     CLEAR     66  59  78 E5        30.01S
PINEVILLE*     CLEAR     65  63  93 MISG      30.09R
BECKLEY        CLEAR     68  53  58 NW6       30.07R
BLUEFIELD      PTCLDY    69  52  54 CALM      30.09R
$$

VAZ002-007-008-TNZ017-027-036-066-071-020000
...SOUTHWEST VIRGINIA/EAST TENNESSEE...

CITY           SKY/WX    TMP DP  RH WIND       PRES   REMARKS
WISE*          CLEAR     70  50  49 CALM      30.09S
JONESVILLE*    CLEAR     72  57  60 CALM      30.04R
ABINGDON*      PTCLDY    72  58  60 CALM      30.05S
BRISTOL        PTCLDY    74  51  44 CALM      30.02R
OAK RIDGE      CLEAR     77  56  48 CALM      30.00S
CROSSVILLE     CLEAR     73  54  51 VRB3      30.03R
NASHVILLE      PTCLDY    83  56  39 SE3       29.93S
$$

...KEY TO REMARKS...
VSB - VISIBILITY IN MILES
WCI - WIND CHILL INDEX
HX  - HEAT INDEX

$$



USA.gov is the U.S. government's official web portal to all federal, state and local government web resources and services.